GW2094 Weather Reports


time (UTC)temp
C
wind
direction
speed
KPH
gust
KPH
rain 1hr
cm
rain 24hr
cm
rain mn
cm
humidity
%
barometer
mb
20260508052755 15 0.0 0.0 0.00 0.00 0.00 5 1015.8
20260508050544 15 0.0 0.0 0.00 0.00 0.00 5 1015.9
20260508045437 14 0.0 0.0 0.00 0.00 0.00 20 1015.7
20260508043227 13 0.0 0.0 0.00 0.00 0.00 59 1015.7
20260508041017 13 0.0 0.0 0.00 0.00 0.00 91 1015.4
20260508035910 13 0.0 0.0 0.00 0.00 0.00 91 1015.3
20260508034803 13 0.0 0.0 0.00 0.00 0.00 91 1015.2
20260508033656 13 0.0 0.0 0.00 0.00 0.00 89 1015.3
20260508032549 13 0.0 0.0 0.00 0.00 0.00 87 1015.3
20260508031442 13 0.0 0.0 0.00 0.00 0.00 62 1015.3
20260508030335 13 0.0 0.0 0.00 0.00 0.00 38 1015.1
20260508025228 13 0.0 0.0 0.00 0.00 0.00 17 1014.9
20260508024121 13 0.0 0.0 0.00 0.00 0.00 5 1014.9
20260508023014 13 0.0 0.0 0.00 0.00 0.00 5 1015.0
20260508021907 13 0.0 0.0 0.00 0.00 0.00 5 1014.9
20260508020801 13 0.0 0.0 0.00 0.00 0.00 5 1014.9
20260508015653 13 0.0 0.0 0.00 0.00 0.00 5 1014.9
20260508013443 13 0.0 0.0 0.00 0.00 0.00 5 1015.0
20260508012336 13 0.0 0.0 0.00 0.00 0.00 5 1015.1
20260508011229 14 0.0 0.0 0.00 0.00 0.00 5 1015.1
20260508010122 14 0.0 0.0 0.00 0.00 0.00 5 1015.1
20260508005016 14 0.0 0.0 0.00 0.00 0.00 5 1015.1
20260508003908 14 0.0 0.0 0.00 0.00 0.00 5 1014.9
20260508001658 15 0.0 0.0 0.00 0.00 0.00 5 1015.0
20260508000551 15 0.0 0.0 0.00 0.00 0.00 5 1015.3
20260507235443 15 0.0 0.0 0.00 0.00 0.00 5 1015.2
20260507233232 16 0.0 0.0 0.00 0.00 0.00 5 1015.1
20260507232125 16 0.0 0.0 0.00 0.00 0.00 5 1015.1
20260507231017 16 0.0 0.0 0.00 0.00 0.00 5 1015.1
20260507225910 16 0.0 0.0 0.00 0.00 0.00 5 1015.0
20260507224804 16 0.0 0.0 0.00 0.00 0.00 5 1015.0
20260507223656 16 0.0 0.0 0.00 0.00 0.00 5 1015.3
20260507221445 16 0.0 0.0 0.00 0.00 0.00 5 1015.5
20260507220338 16 0.0 0.0 0.00 0.00 0.00 5 1015.5
20260507215232 16 0.0 0.0 0.00 0.00 0.00 5 1015.6
20260507214124 16 0.0 0.0 0.00 0.00 0.00 5 1015.5
20260507211914 16 0.0 0.0 0.00 0.00 0.00 5 1015.5
20260507210807 16 0.0 0.0 0.00 0.00 0.00 5 1015.5
20260507132027 23 0.0 0.0 0.00 0.00 0.00 25 1014.8
20260507125816 23 0.0 0.0 0.00 0.00 0.00 27 1014.8
20260507124709 23 0.0 0.0 0.00 0.00 0.00 27 1014.9
20260507123602 23 0.0 0.0 0.00 0.00 0.00 26 1015.1
20260507093857 21 0.0 0.0 0.00 0.00 0.00 5 1016.2
20260507092750 21 0.0 0.0 0.00 0.00 0.00 5 1016.3
20260507090540 20 0.0 0.0 0.00 0.00 0.00 5 1016.3
20260507085433 20 0.0 0.0 0.00 0.00 0.00 5 1016.4
20260507084326 20 0.0 0.0 0.00 0.00 0.00 5 1016.3
20260507083219 20 0.0 0.0 0.00 0.00 0.00 5 1016.4
20260507082113 19 0.0 0.0 0.00 0.00 0.00 5 1016.4
20260507081005 19 0.0 0.0 0.00 0.00 0.00 5 1016.3
20260507075859 18 0.0 0.0 0.00 0.00 0.00 5 1016.2
20260507074752 18 0.0 0.0 0.00 0.00 0.00 5 1016.1
20260507073646 18 0.0 0.0 0.00 0.00 0.00 5 1016.3
20260507072539 18 0.0 0.0 0.00 0.00 0.00 5 1016.2
20260507071432 17 0.0 0.0 0.00 0.00 0.00 5 1016.3
20260507070326 17 0.0 0.0 0.00 0.00 0.00 5 1016.2
20260507065218 17 0.0 0.0 0.00 0.00 0.00 5 1016.2
20260507064112 17 0.0 0.0 0.00 0.00 0.00 5 1016.1
20260507063005 17 0.0 0.0 0.00 0.00 0.00 5 1016.0
20260507060754 16 0.0 0.0 0.00 0.00 0.00 5 1016.1
20260507055647 15 0.0 0.0 0.00 0.00 0.00 5 1016.1
20260507054540 15 0.0 0.0 0.00 0.00 0.00 5 1016.2